Location: Rumah Sambob
(2.9167°N, 113.9167°E)
Time: 12:24:33
(UTC+00:00)

H-10 deb - Pass Details

Date: 06 June 2020
Orbit: 363 x 32732 km, 7.4° (Epoch: 05 July)

Event Time Altitude Azimuth Distance (km) Brightness Sun altitude
Exits shadow 21:43:15 10° 259° (W) 1,528 3.4 -8.1°
Reaches altitude 10° 21:43:16 10° 259° (W) 1,523 3.4 -8.1°
Maximum altitude 21:46:01 81° 172° (S) 672 2.2 -7.4°
Drops below altitude 10° 21:55:05 10° 84° (E) 4,804 8.1 -5.3°
Sets 22:04:10 0° 83° (E) 8,708 9.7 -3.3°
